Location: Amsterdam
(30.7274°N, 84.4357°W)
Time: 22:13:22
(UTC+00:00)

Tiros 1 despin weight - Pass Details

Date: 18 February 2026
Orbit: 556 x 593 km, 48.2° (Epoch: 9 March)

Event Time Altitude Azimuth Distance (km) Brightness Sun altitude
Rises 04:34:46 0° 291° (WNW) 2,741 - -63.9°
Reaches altitude 10° 04:37:40 10° 270° (W) 1,848 - -64.4°
Maximum altitude 04:40:21 17° 231° (SW) 1,478 - -64.8°
Drops below altitude 10° 04:43:03 10° 191° (S) 1,856 - -65.2°
Sets 04:45:59 0° 170° (S) 2,758 - -65.6°
